^^
B2 Weather Station Historical Data
 
Daily Summary for April 21, 2018 Units:  English    Metric   Both
Daily Weekly Monthly Yearly Custom
  Current: High: Low: Average:
Temperature: 42.1 °F 60.1 °F 34.2 °F 46 °F
Dew Point: 31.6 °F 36.5 °F 23.0 °F 30.3 °F
Humidity: 66% 69% 34% 55%
Wind Speed: 3.5mph 17.3mph 0.0mph 2.6mph
Wind Gust: 3.5mph 17.3mph - -
WindNNE - - ENE
Pressure: 30.38 in 30.47 in 30.34 in -
Precipitation: 0.00 in      
Historical Graphs
 
 
Tabular Data for April 21, 2018
Time Temperature Dew Point Pressure Wind Wind Speed Wind Gust Humidity Rainfall Rate (Hourly) solar
00:03 37.5 °F 24.9 °F 30.45 in Calm     60% 0.00 in 0.0 W/m2
00:08 37.2 °F 25.4 °F 30.45 in Calm     62% 0.00 in 0.0 W/m2
00:13 37.1 °F 25.3 °F 30.45 in Calm     62% 0.00 in 0.0 W/m2
00:18 36.9 °F 25.5 °F 30.45 in Calm     63% 0.00 in 0.0 W/m2
00:23 36.6 °F 25.6 °F 30.45 in Calm     64% 0.00 in 0.0 W/m2
00:28 36.2 °F 25.2 °F 30.45 in Calm     64% 0.00 in 0.0 W/m2
00:33 35.6 °F 25.4 °F 30.45 in Calm     66% 0.00 in 0.0 W/m2
00:38 35.2 °F 25.3 °F 30.44 in Calm     67% 0.00 in 0.0 W/m2
00:43 35.1 °F 25.2 °F 30.44 in Calm     67% 0.00 in 0.0 W/m2
00:48 35.1 °F 25.2 °F 30.44 in Calm     67% 0.00 in 0.0 W/m2
00:53 35.2 °F 25.3 °F 30.45 in Calm     67% 0.00 in 0.0 W/m2
00:58 35.3 °F 25.1 °F 30.45 in Calm     66% 0.00 in 0.0 W/m2
01:03 35.4 °F 25.2 °F 30.44 in Calm     66% 0.00 in 0.0 W/m2
01:08 35.5 °F 24.9 °F 30.45 in Calm     65% 0.00 in 0.0 W/m2
01:13 35.6 °F 24.6 °F 30.45 in Calm     64% 0.00 in 0.0 W/m2
01:18 35.7 °F 24.3 °F 30.44 in Calm     63% 0.00 in 0.0 W/m2
01:23 35.8 °F 24.4 °F 30.44 in Calm     63% 0.00 in 0.0 W/m2
01:28 35.7 °F 24.3 °F 30.44 in Calm     63% 0.00 in 0.0 W/m2
01:33 35.5 °F 24.1 °F 30.44 in Calm     63% 0.00 in 0.0 W/m2
01:38 35.2 °F 23.9 °F 30.44 in Calm     63% 0.00 in 0.0 W/m2
01:43 35.0 °F 24.0 °F 30.44 in Calm     64% 0.00 in 0.0 W/m2
01:48 34.9 °F 23.9 °F 30.43 in Calm     64% 0.00 in 0.0 W/m2
01:53 34.8 °F 23.9 °F 30.43 in Calm     64% 0.00 in 0.0 W/m2
01:58 34.8 °F 23.9 °F 30.43 in Calm     64% 0.00 in 0.0 W/m2
02:03 34.8 °F 23.9 °F 30.43 in Calm     64% 0.00 in 0.0 W/m2
02:08 35.0 °F 24.0 °F 30.44 in Calm     64% 0.00 in 0.0 W/m2
02:13 35.2 °F 23.5 °F 30.44 in Calm     62% 0.00 in 0.0 W/m2
02:18 35.3 °F 23.2 °F 30.44 in Calm     61% 0.00 in 0.0 W/m2
02:23 35.6 °F 23.5 °F 30.43 in Calm     61% 0.00 in 0.0 W/m2
02:28 35.5 °F 23.4 °F 30.43 in Calm     61% 0.00 in 0.0 W/m2
02:33 35.2 °F 23.1 °F 30.43 in Calm     61% 0.00 in 0.0 W/m2
02:38 35.0 °F 23.3 °F 30.43 in Calm     62% 0.00 in 0.0 W/m2
02:43 34.9 °F 23.2 °F 30.43 in Calm     62% 0.00 in 0.0 W/m2
02:48 34.7 °F 23.4 °F 30.43 in Calm     63% 0.00 in 0.0 W/m2
02:53 34.4 °F 23.1 °F 30.43 in Calm     63% 0.00 in 0.0 W/m2
02:58 34.3 °F 23.0 °F 30.43 in Calm     63% 0.00 in 0.0 W/m2
03:03 34.2 °F 23.3 °F 30.43 in Calm     64% 0.00 in 0.0 W/m2
03:08 34.2 °F 23.3 °F 30.43 in Calm     64% 0.00 in 0.0 W/m2
03:13 34.3 °F 23.4 °F 30.43 in Calm     64% 0.00 in 0.0 W/m2
03:18 34.3 °F 23.4 °F 30.43 in Calm     64% 0.00 in 0.0 W/m2
03:23 34.5 °F 23.6 °F 30.43 in Calm     64% 0.00 in 0.0 W/m2
03:24 34.6 °F 24.0 °F 30.43 in Calm     65% 0.00 in 0.0 W/m2
03:29 34.8 °F 23.5 °F 30.44 in Calm     63% 0.00 in 0.0 W/m2
03:34 35.1 °F 24.1 °F 30.43 in Calm     64% 0.00 in 0.0 W/m2
03:39 35.1 °F 24.1 °F 30.44 in Calm     64% 0.00 in 0.0 W/m2
03:44 35.2 °F 23.9 °F 30.44 in Calm     63% 0.00 in 0.0 W/m2
03:49 35.3 °F 24.3 °F 30.44 in Calm     64% 0.00 in 0.0 W/m2
03:54 35.5 °F 25.3 °F 30.43 in Calm     66% 0.00 in 0.0 W/m2
03:59 35.6 °F 25.0 °F 30.44 in Calm     65% 0.00 in 0.0 W/m2
04:04 35.8 °F 24.8 °F 30.44 in Calm     64% 0.00 in 0.0 W/m2
04:09 36.1 °F 24.3 °F 30.44 in Calm     62% 0.00 in 0.0 W/m2
04:10 36.1 °F 24.3 °F 30.44 in Calm     62% 0.00 in 0.0 W/m2
04:15 36.5 °F 24.7 °F 30.44 in Calm     62% 0.00 in 0.0 W/m2
04:20 36.5 °F 25.5 °F 30.43 in Calm     64% 0.00 in 0.0 W/m2
04:25 36.5 °F 25.5 °F 30.43 in Calm     64% 0.00 in 0.0 W/m2
04:30 36.4 °F 25.7 °F 30.44 in Calm     65% 0.00 in 0.0 W/m2
04:35 36.5 °F 25.8 °F 30.44 in Calm     65% 0.00 in 0.0 W/m2
04:40 36.6 °F 25.9 °F 30.44 in Calm     65% 0.00 in 0.0 W/m2
04:45 36.7 °F 26.0 °F 30.44 in Calm     65% 0.00 in 0.0 W/m2
04:50 36.8 °F 26.1 °F 30.44 in Calm     65% 0.00 in 0.0 W/m2
04:55 37.0 °F 25.9 °F 30.44 in Calm     64% 0.00 in 0.0 W/m2
05:00 37.3 °F 26.2 °F 30.44 in Calm     64% 0.00 in 0.0 W/m2
05:05 37.4 °F 25.9 °F 30.44 in Calm     63% 0.00 in 0.0 W/m2
05:10 37.5 °F 25.7 °F 30.44 in Calm     62% 0.00 in 0.0 W/m2
05:15 37.5 °F 24.9 °F 30.44 in Calm     60% 0.00 in 0.0 W/m2
05:20 37.7 °F 25.1 °F 30.44 in Calm     60% 0.00 in 0.0 W/m2
05:25 37.8 °F 24.7 °F 30.44 in Calm     59% 0.00 in 0.0 W/m2
05:30 38.0 °F 25.3 °F 30.44 in Calm     60% 0.00 in 0.0 W/m2
05:40 38.4 °F 24.9 °F 30.44 in Calm     58% 0.00 in 0.0 W/m2
05:45 38.7 °F 25.6 °F 30.44 in Calm     59% 0.00 in 0.0 W/m2
05:50 38.9 °F 25.8 °F 30.44 in Calm     59% 0.00 in 0.0 W/m2
05:55 39.1 °F 26.0 °F 30.44 in Calm     59% 0.00 in 0.0 W/m2
06:00 39.3 °F 26.2 °F 30.44 in Calm     59% 0.00 in 0.0 W/m2
06:05 39.4 °F 26.2 °F 30.44 in Calm   0.1 mph 59% 0.00 in 0.0 W/m2
06:10 39.4 °F 26.7 °F 30.44 in Calm     60% 0.00 in 0.0 W/m2
06:15 39.4 °F 26.7 °F 30.44 in Calm     60% 0.00 in 0.0 W/m2
06:20 39.4 °F 27.1 °F 30.44 in Calm     61% 0.00 in 0.0 W/m2
06:25 39.3 °F 27.4 °F 30.44 in Calm     62% 0.00 in 0.0 W/m2
06:30 39.3 °F 27.0 °F 30.43 in East 3.5 mph 3.5 mph 61% 0.00 in 5.0 W/m2
06:35 39.4 °F 26.7 °F 30.44 in East 4.6 mph 4.6 mph 60% 0.00 in 5.0 W/m2
06:40 39.5 °F 26.8 °F 30.44 in East 2.3 mph 2.3 mph 60% 0.00 in 7.0 W/m2
06:45 39.6 °F 26.8 °F 30.43 in ENE 4.6 mph 4.6 mph 60% 0.00 in 9.0 W/m2
06:50 39.7 °F 26.9 °F 30.43 in East 4.6 mph 4.6 mph 60% 0.00 in 9.0 W/m2
06:55 40.0 °F 26.8 °F 30.43 in East 6.9 mph 6.9 mph 59% 0.00 in 12.0 W/m2
07:00 40.2 °F 26.6 °F 30.43 in East 3.5 mph 3.5 mph 58% 0.00 in 16.0 W/m2
07:05 40.4 °F 26.4 °F 30.43 in ESE 2.0 mph 2.0 mph 57% 0.00 in 19.0 W/m2
07:10 40.5 °F 27.3 °F 30.43 in Calm     59% 0.00 in 21.0 W/m2
07:15 40.4 °F 27.6 °F 30.44 in Calm     60% 0.00 in 23.0 W/m2
07:20 40.5 °F 28.1 °F 30.44 in Calm     61% 0.00 in 26.0 W/m2
07:25 40.5 °F 28.1 °F 30.44 in Calm     61% 0.00 in 33.0 W/m2
07:30 40.7 °F 28.7 °F 30.44 in Calm     62% 0.00 in 37.0 W/m2
07:36 40.9 °F 29.3 °F 30.45 in Calm     63% 0.00 in 39.0 W/m2
07:41 41.1 °F 29.1 °F 30.45 in SSE 1.2 mph 1.2 mph 62% 0.00 in 40.0 W/m2
07:46 41.4 °F 28.9 °F 30.46 in Calm     61% 0.00 in 49.0 W/m2
07:51 41.6 °F 28.7 °F 30.46 in Calm     60% 0.00 in 62.0 W/m2
07:56 41.8 °F 28.9 °F 30.46 in Calm     60% 0.00 in 56.0 W/m2
08:01 41.9 °F 28.6 °F 30.46 in Calm     59% 0.00 in 42.0 W/m2
08:06 42.0 °F 28.7 °F 30.45 in Calm     59% 0.00 in 40.0 W/m2
08:11 42.0 °F 28.7 °F 30.45 in Calm     59% 0.00 in 47.0 W/m2
08:16 42.1 °F 28.8 °F 30.45 in Calm     59% 0.00 in 51.0 W/m2
08:21 42.2 °F 29.3 °F 30.45 in Calm     60% 0.00 in 53.0 W/m2
08:26 42.3 °F 29.0 °F 30.45 in Calm     59% 0.00 in 54.0 W/m2
08:31 42.4 °F 29.9 °F 30.45 in Calm     61% 0.00 in 51.0 W/m2
08:36 42.4 °F 30.3 °F 30.45 in Calm     62% 0.00 in 60.0 W/m2
08:41 42.5 °F 29.6 °F 30.45 in Calm     60% 0.00 in 63.0 W/m2
08:46 42.6 °F 29.3 °F 30.46 in Calm     59% 0.00 in 62.0 W/m2
08:51 42.7 °F 28.5 °F 30.46 in Calm     57% 0.00 in 53.0 W/m2
08:56 42.8 °F 29.0 °F 30.46 in Calm     58% 0.00 in 53.0 W/m2
09:01 42.9 °F 29.1 °F 30.46 in Calm     58% 0.00 in 56.0 W/m2
09:06 43.0 °F 29.6 °F 30.46 in Calm     59% 0.00 in 58.0 W/m2
09:11 43.1 °F 29.7 °F 30.46 in Calm     59% 0.00 in 65.0 W/m2
09:16 43.3 °F 30.3 °F 30.46 in Calm     60% 0.00 in 74.0 W/m2
09:21 43.4 °F 30.0 °F 30.47 in Calm     59% 0.00 in 76.0 W/m2
09:26 43.6 °F 30.2 °F 30.47 in Calm     59% 0.00 in 83.0 W/m2
09:31 43.8 °F 30.4 °F 30.47 in Calm     59% 0.00 in 91.0 W/m2
09:36 44.0 °F 30.2 °F 30.47 in Calm     58% 0.00 in 102.0 W/m2
09:41 44.2 °F 30.3 °F 30.47 in Calm     58% 0.00 in 128.0 W/m2
09:46 44.5 °F 31.5 °F 30.47 in Calm     60% 0.00 in 158.0 W/m2
09:51 44.9 °F 31.4 °F 30.47 in Calm     59% 0.00 in 149.0 W/m2
09:56 45.3 °F 31.0 °F 30.47 in Calm     57% 0.00 in 167.0 W/m2
10:02 45.7 °F 31.3 °F 30.47 in Calm     57% 0.00 in 162.0 W/m2
10:07 46.1 °F 31.7 °F 30.47 in Calm     57% 0.00 in 179.0 W/m2
10:12 46.4 °F 32.0 °F 30.47 in Calm     57% 0.00 in 181.0 W/m2
10:17 46.8 °F 32.4 °F 30.47 in Calm     57% 0.00 in 199.0 W/m2
10:22 47.2 °F 32.3 °F 30.47 in Calm     56% 0.00 in 183.0 W/m2
10:27 47.6 °F 32.2 °F 30.47 in Calm     55% 0.00 in 162.0 W/m2
10:32 47.8 °F 31.5 °F 30.47 in Calm     53% 0.00 in 167.0 W/m2
10:37 48.1 °F 32.7 °F 30.47 in Calm     55% 0.00 in 188.0 W/m2
10:42 48.7 °F 32.8 °F 30.47 in Calm     54% 0.00 in 192.0 W/m2
10:45 49.0 °F 32.6 °F 30.46 in Calm     53% 0.00 in 190.0 W/m2
10:50 49.5 °F 32.6 °F 30.46 in Calm     52% 0.00 in 185.0 W/m2
10:55 49.9 °F 32.5 °F 30.46 in Calm     51% 0.00 in 192.0 W/m2
11:00 50.3 °F 32.8 °F 30.46 in Calm     51% 0.00 in 229.0 W/m2
11:05 50.8 °F 33.8 °F 30.46 in Calm     52% 0.00 in 211.0 W/m2
11:10 51.3 °F 36.1 °F 30.46 in Calm     56% 0.00 in 220.0 W/m2
11:15 51.5 °F 34.0 °F 30.46 in Calm     51% 0.00 in 221.0 W/m2
11:20 51.6 °F 33.6 °F 30.45 in Calm     50% 0.00 in 202.0 W/m2
11:25 51.7 °F 33.1 °F 30.45 in Calm     49% 0.00 in 216.0 W/m2
11:26 51.7 °F 32.6 °F 30.45 in Calm     48% 0.00 in 218.0 W/m2
11:31 51.8 °F 33.2 °F 30.45 in Calm     49% 0.00 in 221.0 W/m2
11:36 51.9 °F 34.3 °F 30.45 in Calm     51% 0.00 in 220.0 W/m2
11:41 52.0 °F 33.9 °F 30.45 in Calm     50% 0.00 in 220.0 W/m2
11:46 52.0 °F 33.9 °F 30.44 in Calm     50% 0.00 in 262.0 W/m2
11:51 52.2 °F 33.6 °F 30.44 in Calm     49% 0.00 in 341.0 W/m2
11:56 52.5 °F 33.4 °F 30.44 in Calm     48% 0.00 in 387.0 W/m2
11:57 52.7 °F 34.6 °F 30.44 in Calm     50% 0.00 in 394.0 W/m2
12:02 53.2 °F 35.0 °F 30.44 in Calm     50% 0.00 in 378.0 W/m2
12:07 53.6 °F 34.9 °F 30.44 in Calm     49% 0.00 in 432.0 W/m2
12:12 53.9 °F 33.0 °F 30.44 in Calm     45% 0.00 in 366.0 W/m2
12:18 54.2 °F 31.6 °F 30.43 in Calm     42% 0.00 in 334.0 W/m2
12:23 54.4 °F 32.3 °F 30.43 in Calm     43% 0.00 in 348.0 W/m2
12:28 54.6 °F 33.7 °F 30.43 in Calm     45% 0.00 in 339.0 W/m2
12:33 54.9 °F 33.9 °F 30.43 in Calm     45% 0.00 in 350.0 W/m2
12:38 55.1 °F 34.1 °F 30.43 in Calm     45% 0.00 in 366.0 W/m2
12:43 55.4 °F 34.9 °F 30.42 in South 3.0 mph 3.0 mph 46% 0.00 in 369.0 W/m2
12:48 55.5 °F 32.2 °F 30.42 in SSE 3.5 mph 3.5 mph 41% 0.00 in 362.0 W/m2
12:53 55.6 °F 32.8 °F 30.42 in SSW 3.5 mph 3.5 mph 42% 0.00 in 403.0 W/m2
12:58 55.6 °F 32.2 °F 30.42 in Calm     41% 0.00 in 366.0 W/m2
13:08 55.8 °F 31.8 °F 30.41 in Calm     40% 0.00 in 455.0 W/m2
13:13 56.1 °F 33.3 °F 30.41 in South 5.8 mph 5.8 mph 42% 0.00 in 441.0 W/m2
13:18 56.4 °F 33.0 °F 30.41 in SE 8.1 mph 8.1 mph 41% 0.00 in 490.0 W/m2
13:23 56.7 °F 32.6 °F 30.42 in ENE 3.5 mph 3.5 mph 40% 0.00 in 425.0 W/m2
13:28 56.7 °F 31.4 °F 30.42 in Calm     38% 0.00 in 448.0 W/m2
13:33 56.7 °F 31.4 °F 30.42 in Calm     38% 0.00 in 469.0 W/m2
13:38 56.8 °F 32.1 °F 30.41 in Calm     39% 0.00 in 510.0 W/m2
13:43 57.0 °F 32.3 °F 30.41 in Calm     39% 0.00 in 448.0 W/m2
13:48 57.1 °F 31.7 °F 30.41 in Calm     38% 0.00 in 464.0 W/m2
13:53 57.4 °F 32.6 °F 30.41 in Calm     39% 0.00 in 522.0 W/m2
13:58 57.7 °F 30.9 °F 30.41 in ENE 4.0 mph 4.0 mph 36% 0.00 in 547.0 W/m2
14:03 57.8 °F 31.0 °F 30.41 in WSW 4.0 mph 4.0 mph 36% 0.00 in 708.0 W/m2
14:08 57.8 °F 33.0 °F 30.41 in NE 4.6 mph 4.6 mph 39% 0.00 in 707.0 W/m2
14:13 58.4 °F 32.2 °F 30.41 in NE 5.8 mph 5.8 mph 37% 0.00 in 605.0 W/m2
14:18 58.9 °F 32.7 °F 30.41 in NE 3.5 mph 3.5 mph 37% 0.00 in 870.0 W/m2
14:23 59.5 °F 31.8 °F 30.40 in SE 6.9 mph 6.9 mph 35% 0.00 in 652.0 W/m2
14:28 59.8 °F 32.1 °F 30.40 in ESE 8.1 mph 8.1 mph 35% 0.00 in 840.0 W/m2
14:33 59.7 °F 33.4 °F 30.40 in East 6.9 mph 6.9 mph 37% 0.00 in 729.0 W/m2
14:38 59.8 °F 32.1 °F 30.39 in East 8.1 mph 8.1 mph 35% 0.00 in 744.0 W/m2
14:43 60.1 °F 31.6 °F 30.38 in East 6.9 mph 6.9 mph 34% 0.00 in 680.0 W/m2
14:48 59.9 °F 32.2 °F 30.39 in NNE 8.1 mph 8.1 mph 35% 0.00 in 686.0 W/m2
14:53 59.6 °F 33.3 °F 30.39 in NNE 9.0 mph 9.0 mph 37% 0.00 in 483.0 W/m2
14:58 59.3 °F 33.7 °F 30.39 in North 3.5 mph 3.5 mph 38% 0.00 in 378.0 W/m2
15:03 58.8 °F 32.6 °F 30.38 in NE 10.4 mph 10.4 mph 37% 0.00 in 408.0 W/m2
15:08 58.3 °F 32.8 °F 30.38 in NE 11.5 mph 11.5 mph 38% 0.00 in 418.0 W/m2
15:13 58.3 °F 33.4 °F 30.38 in North 10.4 mph 10.4 mph 39% 0.00 in 584.0 W/m2
15:18 58.5 °F 33.0 °F 30.38 in NNE 12.7 mph 12.7 mph 38% 0.00 in 461.0 W/m2
15:23 58.3 °F 33.4 °F 30.38 in NE 10.4 mph 10.4 mph 39% 0.00 in 390.0 W/m2
15:28 58.3 °F 34.1 °F 30.38 in North 6.9 mph 6.9 mph 40% 0.00 in 427.0 W/m2
15:33 58.1 °F 33.2 °F 30.38 in NE 9.2 mph 9.2 mph 39% 0.00 in 322.0 W/m2
15:38 58.0 °F 33.2 °F 30.38 in NNE 8.1 mph 8.1 mph 39% 0.00 in 274.0 W/m2
15:43 57.7 °F 32.9 °F 30.38 in NE 9.2 mph 9.2 mph 39% 0.00 in 264.0 W/m2
15:48 57.5 °F 32.7 °F 30.38 in ENE 6.9 mph 6.9 mph 39% 0.00 in 272.0 W/m2
15:53 57.5 °F 34.0 °F 30.37 in NNE 6.0 mph 6.0 mph 41% 0.00 in 279.0 W/m2
15:58 57.5 °F 33.3 °F 30.37 in East 7.0 mph 7.0 mph 40% 0.00 in 278.0 W/m2
16:03 57.3 °F 32.5 °F 30.36 in East 6.9 mph 6.9 mph 39% 0.00 in 274.0 W/m2
16:08 57.3 °F 34.4 °F 30.36 in NE 11.5 mph 11.5 mph 42% 0.00 in 306.0 W/m2
16:13 57.5 °F 35.2 °F 30.36 in NE 12.7 mph 12.7 mph 43% 0.00 in 309.0 W/m2
16:18 57.1 °F 35.4 °F 30.36 in ENE 11.5 mph 11.5 mph 44% 0.00 in 341.0 W/m2
16:23 57.1 °F 34.8 °F 30.36 in NE 12.7 mph 12.7 mph 43% 0.00 in 325.0 W/m2
16:28 57.0 °F 36.4 °F 30.36 in ENE 11.0 mph 11.0 mph 46% 0.00 in 329.0 W/m2
16:33 57.0 °F 35.9 °F 30.36 in ENE 17.3 mph 17.3 mph 45% 0.00 in 366.0 W/m2
16:38 57.1 °F 36.5 °F 30.36 in NE 10.4 mph 10.4 mph 46% 0.00 in 329.0 W/m2
16:43 56.8 °F 35.7 °F 30.36 in NE 11.5 mph 11.5 mph 45% 0.00 in 255.0 W/m2
16:48 56.5 °F 35.4 °F 30.36 in NNE 11.5 mph 11.5 mph 45% 0.00 in 225.0 W/m2
16:53 56.3 °F 35.2 °F 30.36 in NE 10.4 mph 10.4 mph 45% 0.00 in 223.0 W/m2
16:58 56.2 °F 35.1 °F 30.36 in NE 11.5 mph 11.5 mph 45% 0.00 in 207.0 W/m2
17:03 56.0 °F 34.4 °F 30.35 in NE 11.5 mph 11.5 mph 44% 0.00 in 172.0 W/m2
17:08 55.7 °F 35.2 °F 30.35 in NE 10.4 mph 10.4 mph 46% 0.00 in 137.0 W/m2
17:13 55.3 °F 34.9 °F 30.35 in NE 10.4 mph 10.4 mph 46% 0.00 in 128.0 W/m2
17:18 55.2 °F 35.3 °F 30.35 in ENE 9.2 mph 9.2 mph 47% 0.00 in 116.0 W/m2
17:23 55.0 °F 35.1 °F 30.35 in ENE 11.5 mph 11.5 mph 47% 0.00 in 107.0 W/m2
17:28 54.8 °F 34.9 °F 30.34 in NE 11.5 mph 11.5 mph 47% 0.00 in 114.0 W/m2
17:33 54.6 °F 34.2 °F 30.34 in NE 10.4 mph 10.4 mph 46% 0.00 in 102.0 W/m2
17:38 54.5 °F 34.7 °F 30.34 in NE 13.8 mph 13.8 mph 47% 0.00 in 79.0 W/m2
17:43 54.2 °F 34.9 °F 30.34 in NE 9.2 mph 9.2 mph 48% 0.00 in 88.0 W/m2
17:48 53.9 °F 35.2 °F 30.34 in ENE 10.4 mph 10.4 mph 49% 0.00 in 77.0 W/m2
17:53 53.6 °F 34.9 °F 30.34 in NE 11.5 mph 11.5 mph 49% 0.00 in 67.0 W/m2
17:58 53.3 °F 34.6 °F 30.35 in NE 9.2 mph 9.2 mph 49% 0.00 in 58.0 W/m2
18:03 53.0 °F 34.3 °F 30.35 in NE 11.5 mph 11.5 mph 49% 0.00 in 47.0 W/m2
18:08 52.7 °F 34.6 °F 30.34 in NE 9.2 mph 9.2 mph 50% 0.00 in 39.0 W/m2
18:13 52.5 °F 34.9 °F 30.34 in NE 6.9 mph 6.9 mph 51% 0.00 in 37.0 W/m2
18:18 52.3 °F 34.7 °F 30.34 in NE 10.4 mph 10.4 mph 51% 0.00 in 32.0 W/m2
18:23 52.1 °F 35.0 °F 30.34 in NE 5.0 mph 5.0 mph 52% 0.00 in 30.0 W/m2
18:28 52.0 °F 34.9 °F 30.34 in ENE 7.0 mph 7.0 mph 52% 0.00 in 26.0 W/m2
18:33 51.8 °F 34.7 °F 30.34 in ENE 4.6 mph 4.6 mph 52% 0.00 in 23.0 W/m2
18:36 51.7 °F 35.1 °F 30.34 in ENE 5.0 mph 5.0 mph 53% 0.00 in 23.0 W/m2
18:41 51.5 °F 34.9 °F 30.34 in ENE 4.6 mph 4.6 mph 53% 0.00 in 26.0 W/m2
18:46 51.4 °F 35.3 °F 30.34 in NE 3.5 mph 3.5 mph 54% 0.00 in 28.0 W/m2
18:51 51.3 °F 35.2 °F 30.34 in NE 4.0 mph 4.0 mph 54% 0.00 in 26.0 W/m2
18:56 51.3 °F 35.2 °F 30.35 in NE 3.5 mph 3.5 mph 54% 0.00 in 23.0 W/m2
19:01 51.2 °F 35.1 °F 30.35 in Calm     54% 0.00 in 18.0 W/m2
19:06 50.9 °F 35.3 °F 30.35 in NE 6.9 mph 6.9 mph 55% 0.00 in 14.0 W/m2
19:11 50.4 °F 35.7 °F 30.35 in NE 5.8 mph 5.8 mph 57% 0.00 in 12.0 W/m2
19:14 50.1 °F 35.4 °F 30.35 in NE 4.6 mph 4.6 mph 57% 0.00 in 11.0 W/m2
19:19 49.7 °F 35.1 °F 30.35 in NNE 4.6 mph 4.6 mph 57% 0.00 in 9.0 W/m2
19:24 49.4 °F 35.2 °F 30.35 in Calm     58% 0.00 in 5.0 W/m2
19:29 49.1 °F 35.4 °F 30.35 in NE 4.6 mph 4.6 mph 59% 0.00 in 0.0 W/m2
19:34 48.8 °F 35.1 °F 30.35 in NE 4.6 mph 4.6 mph 59% 0.00 in 0.0 W/m2
19:39 48.6 °F 35.3 °F 30.34 in NE 3.5 mph 3.5 mph 60% 0.00 in 0.0 W/m2
19:44 48.3 °F 35.0 °F 30.35 in NE 3.5 mph 3.5 mph 60% 0.00 in 0.0 W/m2
19:49 48.1 °F 34.9 °F 30.34 in NE 3.5 mph 3.5 mph 60% 0.00 in 0.0 W/m2
19:54 47.8 °F 35.0 °F 30.35 in NE 3.5 mph 3.5 mph 61% 0.00 in 0.0 W/m2
19:59 47.6 °F 34.8 °F 30.35 in Calm     61% 0.00 in 0.0 W/m2
20:04 47.2 °F 34.8 °F 30.35 in NE 3.5 mph 3.5 mph 62% 0.00 in 0.0 W/m2
20:09 46.8 °F 34.9 °F 30.35 in Calm     63% 0.00 in 0.0 W/m2
20:14 46.4 °F 34.9 °F 30.35 in Calm     64% 0.00 in 0.0 W/m2
20:19 46.1 °F 35.0 °F 30.35 in NE 3.5 mph 3.5 mph 65% 0.00 in 0.0 W/m2
20:24 45.9 °F 34.8 °F 30.35 in NNE 3.5 mph   65% 0.00 in 0.0 W/m2
20:29 45.7 °F 34.6 °F 30.36 in NNE 1.2 mph   65% 0.00 in 0.0 W/m2
20:34 45.6 °F 34.5 °F 30.36 in Calm     65% 0.00 in 0.0 W/m2
20:39 45.4 °F 34.7 °F 30.36 in Calm     66% 0.00 in 0.0 W/m2
20:44 44.9 °F 34.6 °F 30.36 in Calm     67% 0.00 in 0.0 W/m2
20:49 44.5 °F 34.6 °F 30.36 in NE 4.6 mph 4.6 mph 68% 0.00 in 0.0 W/m2
20:54 44.4 °F 34.5 °F 30.36 in NE 2.3 mph 2.3 mph 68% 0.00 in 0.0 W/m2
20:59 44.1 °F 34.2 °F 30.37 in NNE 2.3 mph 2.3 mph 68% 0.00 in 0.0 W/m2
21:04 44.0 °F 33.7 °F 30.37 in North 3.5 mph 3.5 mph 67% 0.00 in 0.0 W/m2
21:09 43.9 °F 34.0 °F 30.37 in North 4.6 mph 4.6 mph 68% 0.00 in 0.0 W/m2
21:14 43.6 °F 33.7 °F 30.37 in North 3.5 mph 3.5 mph 68% 0.00 in 0.0 W/m2
21:19 43.3 °F 33.4 °F 30.37 in NNE 4.6 mph 4.6 mph 68% 0.00 in 0.0 W/m2
21:24 43.0 °F 33.5 °F 30.38 in Calm     69% 0.00 in 0.0 W/m2
21:29 42.7 °F 33.2 °F 30.38 in Calm   0.7 mph 69% 0.00 in 0.0 W/m2
21:34 42.5 °F 33.0 °F 30.38 in North 4.6 mph 4.6 mph 69% 0.00 in 0.0 W/m2
21:39 42.4 °F 32.6 °F 30.38 in NNE 6.0 mph 6.0 mph 68% 0.00 in 0.0 W/m2
21:44 42.4 °F 32.2 °F 30.38 in North 6.0 mph 6.0 mph 67% 0.00 in 0.0 W/m2
21:49 42.3 °F 32.1 °F 30.38 in NNE 3.5 mph 3.5 mph 67% 0.00 in 0.0 W/m2
21:54 42.2 °F 31.6 °F 30.38 in NNE 6.9 mph 6.9 mph 66% 0.00 in 0.0 W/m2
22:00 42.1 °F 31.6 °F 30.38 in NNE 3.5 mph 3.5 mph 66% 0.00 in 0.0 W/m2
Bourbonnais, Illinois, USA
Compliments of Weather Underground - 4 mb